When you browse on this site, cookies collect data to enhance your experience and personalize the content and advertising you see.
Visit our Privacy Policy to learn more. By continuing to use the site, you agree to this use of cookies and data.
  • In Norway
  • List of Countries
  • For 7 days
  • Water Temperature
  • Satellite Maps
  • Weather Map
  • Weather Widgets
  • user-avatar
    Login

    Hourly Weather Konstantyna

    Today, 17 November, Saturday

    Time Temperature Precipitation Wind Pressure Humidity
    00:00 +13°C° 0 mm 1 mps 708 mmHg 93%
    01:00 +12°C° 0 mm 1 mps 708 mmHg 93%
    02:00 +11°C° 0 mm 0 mps 708 mmHg 94%
    03:00 +11°C° 0 mm 0 mps 708 mmHg 94%
    04:00 +11°C° 0 mm 1 mps 707 mmHg 94%
    05:00 +11°C° 0 mm 1 mps 707 mmHg 93%
    06:00 +11°C° 0 mm 1 mps 707 mmHg 93%
    07:00 +12°C° 0 mm 1 mps 707 mmHg 87%
    08:00 +14°C° 0 mm 1 mps 707 mmHg 80%
    09:00 +15°C° 0 mm 1 mps 707 mmHg 74%
    10:00 +16°C° 0.1 mm 1 mps 707 mmHg 69%
    11:00 +18°C° 0.1 mm 1 mps 707 mmHg 64%
    12:00 +19°C° 0.1 mm 1 mps 706 mmHg 59%
    13:00 +17°C° 0.4 mm 2 mps 706 mmHg 60%
    14:00 +17°C° 0.4 mm 2 mps 706 mmHg 61%
    15:00 +17°C° 0.4 mm 2 mps 705 mmHg 62%
    16:00 +16°C° 0.4 mm 2 mps 705 mmHg 68%
    17:00 +15°C° 0.4 mm 1 mps 705 mmHg 75%
    18:00 +14°C° 0.4 mm 1 mps 705 mmHg 81%
    19:00 +13°C° 0 mm 1 mps 705 mmHg 84%
    20:00 +13°C° 0 mm 1 mps 705 mmHg 86%
    21:00 +12°C° 0 mm 1 mps 705 mmHg 89%
    22:00 +12°C° 0 mm 1 mps 705 mmHg 89%
    23:00 +12°C° 0 mm 1 mps 705 mmHg 90%

    Tomorrow, 18 November, Sunday

    Time Temperature Precipitation Wind Pressure Humidity
    00:00 +11°C° 0 mm 1 mps 705 mmHg 91%
    01:00 +11°C° 0 mm 1 mps 704 mmHg 91%
    02:00 +11°C° 0 mm 1 mps 704 mmHg 91%
    03:00 +11°C° 0 mm 1 mps 704 mmHg 91%
    04:00 +11°C° 0 mm 1 mps 704 mmHg 91%
    05:00 +11°C° 0 mm 1 mps 704 mmHg 91%
    06:00 +10°C° 0 mm 1 mps 704 mmHg 90%
    07:00 +12°C° 0 mm 1 mps 705 mmHg 83%
    08:00 +14°C° 0 mm 1 mps 705 mmHg 75%
    09:00 +15°C° 0 mm 2 mps 706 mmHg 68%
    10:00 +16°C° 0 mm 2 mps 705 mmHg 61%
    11:00 +18°C° 0 mm 2 mps 705 mmHg 55%
    12:00 +19°C° 0 mm 3 mps 705 mmHg 48%
    13:00 +19°C° 0 mm 3 mps 705 mmHg 48%
    14:00 +19°C° 0 mm 3 mps 705 mmHg 47%
    15:00 +19°C° 0 mm 3 mps 704 mmHg 47%
    16:00 +18°C° 0 mm 2 mps 704 mmHg 53%
    17:00 +16°C° 0 mm 2 mps 704 mmHg 59%
    18:00 +15°C° 0 mm 2 mps 704 mmHg 66%
    19:00 +15°C° 0 mm 2 mps 704 mmHg 66%
    20:00 +15°C° 0 mm 2 mps 704 mmHg 67%
    21:00 +14°C° 0 mm 2 mps 704 mmHg 68%
    22:00 +14°C° 0 mm 2 mps 704 mmHg 68%
    23:00 +14°C° 0 mm 2 mps 704 mmHg 68%

    Day after tomorrow, 19 November, Monday

    Time Temperature Precipitation Wind Pressure Humidity
    00:00 +14°C° 0 mm 2 mps 703 mmHg 68%
    01:00 +13°C° 0 mm 3 mps 703 mmHg 70%
    02:00 +13°C° 0 mm 3 mps 702 mmHg 71%
    03:00 +12°C° 0 mm 3 mps 702 mmHg 72%
    04:00 +12°C° 0 mm 3 mps 702 mmHg 72%
    05:00 +12°C° 0 mm 3 mps 701 mmHg 72%
    06:00 +12°C° 0 mm 3 mps 701 mmHg 72%
    07:00 +14°C° 0 mm 3 mps 701 mmHg 66%
    08:00 +15°C° 0 mm 4 mps 702 mmHg 61%
    09:00 +16°C° 0 mm 5 mps 702 mmHg 55%
    10:00 +17°C° 0 mm 5 mps 701 mmHg 52%
    11:00 +19°C° 0 mm 5 mps 701 mmHg 49%
    12:00 +19°C° 0 mm 6 mps 700 mmHg 46%
    13:00 +19°C° 0.2 mm 5 mps 700 mmHg 48%
    14:00 +19°C° 0.2 mm 5 mps 699 mmHg 50%
    15:00 +17°C° 0.2 mm 5 mps 698 mmHg 52%
    16:00 +16°C° 0 mm 5 mps 698 mmHg 54%
    17:00 +15°C° 0 mm 4 mps 698 mmHg 57%
    18:00 +14°C° 0 mm 4 mps 697 mmHg 59%
    19:00 +13°C° 0.1 mm 4 mps 697 mmHg 63%
    20:00 +13°C° 0.1 mm 4 mps 697 mmHg 66%
    21:00 +12°C° 0.1 mm 4 mps 697 mmHg 69%
    22:00 +12°C° 0.5 mm 4 mps 697 mmHg 72%
    23:00 +12°C° 0.5 mm 4 mps 697 mmHg 75%

    20 November, Tuesday

    Time Temperature Precipitation Wind Pressure Humidity
    00:00 +11°C° 0.5 mm 4 mps 697 mmHg 78%
    01:00 +11°C° 0 mm 4 mps 697 mmHg 78%
    02:00 +11°C° 0 mm 4 mps 697 mmHg 78%
    03:00 +10°C° 0 mm 4 mps 697 mmHg 78%
    04:00 +10°C° 0 mm 4 mps 698 mmHg 78%
    05:00 +10°C° 0 mm 4 mps 698 mmHg 78%
    06:00 +8°C° 0 mm 4 mps 698 mmHg 79%
    07:00 +10°C° 0 mm 5 mps 698 mmHg 73%
    08:00 +11°C° 0 mm 6 mps 699 mmHg 67%
    09:00 +12°C° 0 mm 7 mps 700 mmHg 61%
    10:00 +14°C° 0.1 mm 7 mps 700 mmHg 61%
    11:00 +14°C° 0.1 mm 7 mps 700 mmHg 61%
    12:00 +14°C° 0.1 mm 7 mps 701 mmHg 61%
    13:00 +14°C° 0.1 mm 7 mps 701 mmHg 62%
    14:00 +14°C° 0.1 mm 6 mps 702 mmHg 64%
    15:00 +14°C° 0.1 mm 6 mps 702 mmHg 66%
    16:00 +13°C° 0 mm 4 mps 703 mmHg 70%
    17:00 +12°C° 0 mm 3 mps 703 mmHg 75%
    18:00 +11°C° 0 mm 1 mps 704 mmHg 80%
    19:00 +11°C° 0 mm 1 mps 704 mmHg 79%
    20:00 +10°C° 0 mm 2 mps 704 mmHg 78%
    21:00 +10°C° 0 mm 2 mps 705 mmHg 78%
    22:00 +10°C° 0 mm 2 mps 705 mmHg 77%
    23:00 +10°C° 0 mm 3 mps 705 mmHg 77%

    21 November, Wednesday

    Time Temperature Precipitation Wind Pressure Humidity
    00:00 +10°C° 0 mm 3 mps 705 mmHg 76%
    01:00 +10°C° 0 mm 3 mps 704 mmHg 76%
    02:00 +10°C° 0 mm 3 mps 704 mmHg 77%
    03:00 +9°C° 0 mm 3 mps 704 mmHg 77%
    04:00 +9°C° 0 mm 3 mps 704 mmHg 76%
    05:00 +9°C° 0 mm 3 mps 705 mmHg 75%
    06:00 +9°C° 0 mm 3 mps 705 mmHg 74%
    07:00 +11°C° 0 mm 4 mps 705 mmHg 66%
    08:00 +13°C° 0 mm 5 mps 706 mmHg 59%
    09:00 +15°C° 0 mm 6 mps 707 mmHg 52%
    10:00 +16°C° 0 mm 6 mps 707 mmHg 48%
    11:00 +16°C° 0 mm 7 mps 707 mmHg 44%
    12:00 +17°C° 0 mm 8 mps 707 mmHg 40%
    13:00 +17°C° 0 mm 7 mps 707 mmHg 41%
    14:00 +17°C° 0 mm 6 mps 707 mmHg 43%
    15:00 +16°C° 0 mm 6 mps 707 mmHg 45%
    16:00 +15°C° 0 mm 4 mps 707 mmHg 50%
    17:00 +14°C° 0 mm 3 mps 708 mmHg 56%
    18:00 +13°C° 0 mm 2 mps 708 mmHg 62%
    19:00 +13°C° 0 mm 2 mps 708 mmHg 63%
    20:00 +13°C° 0 mm 2 mps 709 mmHg 63%
    21:00 +12°C° 0 mm 2 mps 709 mmHg 64%
    22:00 +12°C° 0 mm 2 mps 709 mmHg 63%
    23:00 +12°C° 0 mm 2 mps 709 mmHg 63%

    22 November, Thursday

    Time Temperature Precipitation Wind Pressure Humidity
    00:00 +12°C° 0 mm 2 mps 709 mmHg 63%
    01:00 +10°C° 0 mm 2 mps 709 mmHg 63%
    02:00 +10°C° 0 mm 2 mps 709 mmHg 63%
    03:00 +10°C° 0 mm 2 mps 709 mmHg 63%
    04:00 +10°C° 0 mm 2 mps 709 mmHg 63%
    05:00 +10°C° 0 mm 2 mps 709 mmHg 62%
    06:00 +10°C° 0 mm 2 mps 710 mmHg 62%
    07:00 +13°C° 0 mm 2 mps 710 mmHg 56%
    08:00 +14°C° 0 mm 3 mps 711 mmHg 50%
    09:00 +16°C° 0 mm 3 mps 711 mmHg 45%
    10:00 +18°C° 0 mm 4 mps 711 mmHg 40%
    11:00 +19°C° 0 mm 4 mps 711 mmHg 35%
    12:00 +21°C° 0 mm 5 mps 711 mmHg 31%
    13:00 +20°C° 0 mm 5 mps 711 mmHg 31%
    14:00 +20°C° 0 mm 4 mps 711 mmHg 32%
    15:00 +20°C° 0 mm 4 mps 711 mmHg 33%
    16:00 +18°C° 0 mm 3 mps 711 mmHg 36%
    17:00 +17°C° 0 mm 3 mps 711 mmHg 39%
    18:00 +15°C° 0 mm 2 mps 711 mmHg 42%
    19:00 +15°C° 0 mm 2 mps 711 mmHg 44%
    20:00 +14°C° 0 mm 2 mps 711 mmHg 45%
    21:00 +14°C° 0 mm 2 mps 712 mmHg 47%
    22:00 +13°C° 0 mm 2 mps 712 mmHg 48%
    23:00 +13°C° 0 mm 2 mps 712 mmHg 49%
    Show more